Location: Byszew
(52.1813°N, 19.2693°E)
Time: 21:33:24
(UTC+00:00)

Cosmos 2219 Rocket - Pass Details

Date: 03 March 2021
Orbit: 826 x 848 km, 71.0° (Epoch: 15 April)

Event Time Altitude Azimuth Distance (km) Brightness Sun altitude
Rises 19:25:40 0° 213° (SSW) 3,358 5.4 -27.5°
Reaches altitude 10° 19:28:06 10° 215° (SW) 2,430 4.6 -27.9°
Maximum altitude 19:33:40 78° 302° (WNW) 856 2.2 -28.6°
Drops below altitude 10° 19:39:19 10° 29° (NNE) 2,457 4.6 -29.4°
Sets 19:41:47 0° 31° (NNE) 3,398 5.4 -29.7°
